Wind_Speed
18 19 18 17 16 15 15 15 14 14 13 12 12 11 10 8 8 7 5 4 3 3 2 2 2 2 3 3 3 2 2 2 2 2 2 2 3 3 4 4 6 7
20 20 18 17 17 16 16 15 15 14 14 13 12 12 11 10 8 7 6 5 4 3 2 2 2 2 3 3 2 2 2 2 2 2 2 2 2 3 3 4 5 6
21 20 19 18 18 17 16 16 15 15 15 14 13 13 13 11 10 9 8 6 5 4 3 3 3 3 3 4 3 3 2 2 2 2 2 2 2 2 3 4 5 6
22 22 21 20 19 17 16 16 16 16 15 15 15 15 14 12 11 10 9 8 6 5 4 3 4 4 4 5 4 3 3 3 3 2 1 2 2 1 3 4 5 6
24 24 22 21 19 18 17 17 17 16 16 16 16 16 15 14 12 11 10 9 7 5 4 4 4 5 5 5 5 5 4 3 3 2 2 2 1 1 2 3 4 5
25 25 23 22 20 19 18 18 18 17 17 17 17 17 17 15 14 12 11 10 8 7 6 5 5 5 6 6 6 6 5 4 4 3 3 2 1 2 2 2 2 4
26 26 25 23 21 20 19 19 18 18 18 18 18 18 18 16 15 14 13 11 10 9 8 7 7 7 7 7 7 6 6 5 4 4 4 3 3 3 2 2 2 2
27 26 26 24 22 21 20 19 20 20 20 20 19 20 20 18 17 16 14 13 12 11 10 9 9 8 8 8 7 7 7 6 5 4 4 5 5 4 3 3 2 2
28 27 26 25 23 22 21 21 22 22 22 21 21 22 22 20 19 18 17 16 14 13 12 12 11 10 9 9 8 8 8 7 6 6 5 6 6 6 6 5 4 4
30 28 27 26 25 23 22 22 23 23 23 23 23 24 23 22 21 20 19 18 17 16 15 14 13 12 11 10 9 9 9 8 8 7 7 7 7 7 7 7 6 6
32 30 29 28 27 25 24 24 24 24 25 24 25 25 24 24 23 21 21 20 19 18 17 16 15 14 13 11 10 10 10 10 9 9 9 8 9 9 8 8 8 8
33 32 31 30 29 28 27 25 25 25 26 26 26 26 25 25 24 23 22 22 21 20 19 18 17 16 15 14 12 12 11 11 11 11 11 11 11 10 10 10 9 9
32 33 33 32 31 30 29 28 26 26 26 26 27 27 26 26 25 24 23 23 23 22 21 20 19 18 17 16 15 14 13 13 13 13 13 12 12 12 12 11 10 10
30 32 33 34 33 32 31 30 28 27 27 27 27 27 27 27 26 25 24 24 24 23 22 22 21 21 20 19 18 17 16 16 15 15 14 14 14 14 13 12 12 12
27 29 32 33 34 34 33 32 31 29 28 28 28 27 27 27 27 27 25 25 24 24 24 24 23 23 22 21 21 20 19 18 17 16 16 15 15 15 15 14 13 13
26 27 29 31 33 33 34 34 33 32 30 30 29 28 28 28 27 27 27 26 25 25 25 25 25 25 24 24 24 23 22 21 20 19 18 17 17 17 17 16 16 15
27 26 26 28 31 33 34 35 35 34 33 31 30 29 29 28 27 27 27 27 27 26 26 26 26 26 26 26 26 26 25 24 23 21 20 20 19 19 18 18 18 17
29 28 28 28 29 31 34 36 37 37 35 33 32 31 30 30 29 28 28 27 27 27 26 26 26 26 26 26 27 27 26 26 25 24 23 22 21 20 20 20 20 19
32 31 30 30 30 30 32 35 37 37 36 36 35 34 33 32 30 29 28 28 27 27 26 25 26 26 25 26 28 28 27 27 26 26 25 24 23 22 22 22 21 21
35 35 33 32 32 31 31 33 35 35 35 36 37 36 35 33 32 31 30 29 28 27 26 25 25 25 24 25 27 28 28 28 27 26 26 25 25 24 23 23 23 23
35 37 36 35 35 34 33 32 32 33 34 36 37 37 37 35 35 34 32 31 30 29 27 26 25 25 24 24 26 28 29 29 27 27 26 26 26 25 24 24 24 24
33 35 37 38 37 36 36 35 33 32 33 34 35 37 37 37 37 36 35 34 33 31 30 28 28 27 26 25 26 28 29 28 27 26 26 26 26 26 26 25 25 24
35 34 37 38 37 36 36 37 37 36 34 32 33 35 36 37 38 38 37 36 35 34 32 31 30 30 29 28 28 29 29 28 27 26 26 25 25 26 26 26 25 25
37 36 37 36 34 34 35 36 37 37 36 34 32 32 34 35 37 38 38 38 37 36 35 33 33 32 32 31 31 32 31 30 28 26 25 24 25 26 27 27 27 27
37 39 40 37 34 33 34 35 35 36 38 38 36 32 31 32 33 35 36 37 37 36 36 36 35 35 34 34 34 34 34 33 31 29 26 25 25 26 27 28 28 29
41 42 42 40 38 35 34 35 36 37 39 41 40 35 32 30 30 31 32 34 35 36 37 37 36 36 37 36 36 36 36 36 34 32 29 28 27 27 28 28 29 29
Wind_Direction
210 215 218 219 218 216 218 223 222 218 211 203 199 196 195 194 193 201 210 207 201 194 189 198 185 164 166 170 161 154 149 144 155 161 159 165 171 177 180 178 177 177
207 213 214 215 217 216 217 221 222 220 215 206 199 198 200 199 198 201 206 208 207 206 210 217 210 181 171 178 179 179 172 161 164 159 154 166 184 192 197 199 194 185
205 211 213 212 215 216 217 220 221 220 218 211 203 202 203 203 203 203 205 208 211 215 220 221 217 200 183 181 185 197 196 178 175 160 146 163 185 208 216 217 214 203
205 210 213 212 212 214 217 221 222 220 218 215 209 206 207 207 209 210 209 210 215 222 226 222 217 206 196 189 182 190 206 201 196 186 170 173 177 220 237 228 224 217
207 210 213 212 211 213 217 221 223 222 220 218 215 211 210 210 213 216 216 214 219 228 233 226 220 211 204 198 185 183 198 216 214 211 217 207 181 222 244 240 233 226
210 213 215 213 211 212 216 220 223 223 223 221 218 217 215 214 216 219 220 220 222 230 234 230 225 218 211 206 196 188 192 208 222 226 232 238 230 233 237 244 246 233
214 215 217 216 213 212 215 220 222 224 224 222 221 221 220 218 218 220 221 223 225 229 231 230 227 224 218 213 207 202 199 202 213 226 237 244 245 244 239 240 254 247
218 219 220 220 217 214 215 218 222 225 225 222 222 223 222 220 219 220 222 223 226 229 230 230 229 227 224 220 215 212 212 211 212 221 233 240 244 248 244 238 244 252
220 221 224 225 223 219 216 217 222 225 225 224 223 224 223 223 221 221 222 223 226 228 230 231 231 231 229 226 224 220 220 221 220 221 227 234 240 245 246 244 242 246
222 222 224 227 229 226 221 218 220 225 226 226 226 226 225 225 225 223 222 224 225 228 230 231 232 233 232 230 230 227 225 227 226 227 228 231 236 240 244 246 246 246
223 224 225 227 231 232 230 224 222 224 226 227 228 229 228 227 227 226 224 225 226 228 231 232 233 234 233 231 231 231 231 230 230 231 232 233 235 238 240 243 246 248
225 225 226 228 230 233 234 232 228 227 228 228 229 231 230 230 230 228 227 228 229 230 232 234 235 236 235 233 232 233 234 232 232 234 235 236 238 238 239 240 243 246
228 226 227 229 230 232 235 236 234 233 232 231 231 231 233 234 233 232 230 231 232 233 234 236 237 238 238 237 234 234 235 235 234 235 236 239 241 242 241 240 241 245
231 230 229 230 231 232 235 237 237 237 236 236 235 234 235 236 237 236 234 234 235 235 236 238 240 240 241 240 238 236 236 237 236 236 237 239 242 245 246 244 243 245
236 235 233 234 234 234 235 238 240 239 239 240 240 239 238 239 240 240 239 238 237 237 238 239 241 242 242 242 242 239 238 238 239 239 239 239 241 244 246 247 246 246
241 240 239 238 238 237 237 238 240 241 241 241 242 243 243 242 243 243 244 243 241 241 240 240 241 242 243 244 244 242 240 240 240 241 242 241 241 243 244 246 247 247
238 240 240 241 240 239 239 239 239 241 242 242 243 244 246 246 245 245 245 246 246 245 245 244 244 244 244 245 246 245 244 242 242 242 243 244 244 244 245 246 247 247
233 235 236 238 239 239 240 240 240 240 241 242 243 244 246 247 247 248 248 249 249 249 250 250 250 249 248 248 249 249 247 246 245 244 245 245 246 247 247 248 248 249
231 232 232 233 234 237 239 240 240 240 241 242 243 243 244 246 248 249 250 251 252 253 254 254 255 256 255 254 255 254 253 251 249 248 248 248 248 249 250 251 252 252
237 232 231 232 233 234 237 239 239 239 240 241 243 244 244 245 247 248 249 250 252 254 255 256 257 258 258 259 260 260 259 257 254 253 252 252 252 252 252 253 255 256
249 240 235 234 234 234 237 239 239 239 239 238 240 242 244 245 246 247 247 248 249 250 251 252 255 256 256 257 260 262 262 261 261 259 258 257 255 255 255 255 256 257
256 253 248 242 238 239 241 240 240 240 240 239 238 239 241 242 244 245 246 247 247 248 248 248 250 252 252 252 255 259 262 263 264 264 263 261 260 259 258 257 257 258
255 261 260 252 247 246 246 244 243 240 240 241 240 239 239 241 242 244 245 246 246 247 248 248 249 251 251 250 251 253 256 259 261 262 262 263 263 262 261 259 259 258
258 262 263 259 254 252 250 250 249 245 243 243 243 242 240 240 242 244 245 246 247 248 249 249 250 251 252 252 253 254 254 254 254 254 256 257 259 260 260 259 258 257
259 260 261 259 256 255 253 251 250 246 244 244 245 246 245 242 242 243 245 246 247 248 249 249 250 252 252 253 255 256 257 256 254 252 250 250 252 254 255 256 256 256
255 257 259 257 254 253 253 251 248 246 245 243 242 245 247 244 241 242 243 244 245 246 247 248 249 250 251 252 253 255 257 258 258 256 254 251 249 249 250 252 253 254
Height
5942 5943 5945 5947 5948 5949 5950 5951 5952 5953 5953 5955 5956 5957 5958 5958 5959 5960 5961 5961 5962 5963 5963 5964 5965 5965 5966 5966 5967 5967 5968 5968 5968 5969 5969 5970 5970 5970 5971 5971 5971 5972
5941 5942 5943 5945 5947 5948 5949 5950 5951 5952 5953 5954 5955 5957 5957 5958 5959 5959 5960 5961 5962 5962 5963 5964 5964 5965 5965 5966 5967 5968 5968 5968 5969 5969 5970 5970 5971 5971 5971 5972 5972 5972
5939 5941 5942 5944 5945 5947 5948 5949 5950 5951 5953 5954 5955 5956 5957 5958 5958 5959 5960 5960 5961 5962 5963 5963 5964 5965 5965 5966 5967 5968 5968 5968 5969 5969 5970 5970 5971 5971 5972 5972 5973 5973
5938 5939 5940 5942 5944 5946 5947 5948 5949 5950 5952 5953 5954 5955 5956 5957 5958 5959 5959 5960 5961 5961 5962 5963 5964 5964 5965 5966 5967 5968 5968 5968 5968 5969 5970 5970 5971 5971 5972 5973 5973 5973
5936 5937 5938 5940 5942 5944 5946 5947 5948 5949 5951 5952 5953 5954 5955 5957 5958 5958 5959 5959 5960 5961 5962 5962 5963 5964 5965 5966 5966 5967 5967 5968 5968 5969 5970 5970 5970 5971 5972 5973 5973 5973
5934 5935 5937 5939 5940 5942 5944 5945 5947 5948 5949 5951 5952 5954 5955 5956 5957 5958 5958 5959 5959 5960 5961 5962 5962 5963 5964 5965 5966 5966 5967 5967 5968 5969 5970 5970 5971 5972 5972 5972 5973 5974
5933 5934 5935 5937 5939 5940 5942 5944 5946 5947 5948 5950 5951 5953 5954 5955 5956 5957 5958 5958 5959 5960 5960 5961 5961 5962 5963 5964 5965 5966 5966 5967 5967 5968 5969 5969 5970 5971 5971 5972 5973 5973
5932 5933 5934 5936 5937 5939 5940 5942 5944 5945 5947 5949 5950 5951 5952 5954 5955 5956 5957 5958 5958 5959 5959 5960 5960 5961 5962 5963 5964 5965 5966 5966 5967 5968 5968 5969 5970 5970 5971 5972 5973 5973
5931 5932 5934 5935 5936 5937 5939 5940 5942 5943 5945 5947 5948 5949 5950 5952 5953 5955 5956 5957 5957 5958 5958 5959 5959 5960 5961 5962 5963 5964 5965 5966 5967 5967 5968 5968 5969 5970 5970 5971 5972 5972
5929 5931 5932 5934 5935 5937 5938 5939 5940 5942 5943 5945 5946 5947 5949 5950 5951 5953 5954 5955 5956 5957 5957 5958 5959 5959 5960 5962 5963 5963 5964 5965 5966 5967 5967 5968 5969 5969 5970 5970 5971 5972
5927 5929 5931 5932 5934 5935 5937 5938 5939 5940 5941 5943 5944 5945 5947 5948 5949 5951 5952 5953 5954 5955 5956 5957 5958 5959 5960 5961 5962 5963 5964 5964 5965 5966 5967 5967 5968 5968 5969 5969 5970 5971
5924 5926 5928 5930 5932 5934 5935 5936 5938 5938 5940 5941 5942 5944 5945 5946 5947 5949 5951 5952 5953 5954 5955 5956 5957 5958 5959 5960 5961 5962 5963 5964 5964 5965 5966 5967 5967 5968 5968 5969 5969 5970
5922 5924 5926 5927 5929 5931 5933 5934 5936 5937 5938 5939 5941 5942 5944 5945 5946 5947 5949 5950 5951 5953 5954 5955 5956 5957 5958 5959 5960 5961 5962 5962 5963 5964 5965 5966 5967 5967 5968 5968 5969 5969
5920 5921 5923 5925 5927 5929 5930 5932 5934 5935 5937 5938 5939 5941 5942 5943 5944 5946 5947 5949 5950 5951 5953 5954 5955 5955 5956 5957 5958 5960 5960 5961 5962 5963 5964 5965 5966 5966 5967 5968 5968 5969
5918 5920 5921 5923 5924 5926 5928 5930 5932 5933 5935 5936 5937 5939 5940 5941 5943 5944 5946 5947 5948 5950 5951 5952 5953 5954 5955 5956 5957 5958 5959 5960 5960 5961 5962 5963 5964 5965 5966 5967 5967 5968
5916 5918 5919 5921 5922 5924 5926 5927 5929 5930 5932 5934 5935 5937 5938 5939 5941 5942 5944 5945 5947 5948 5949 5950 5951 5952 5953 5954 5954 5955 5957 5958 5959 5960 5961 5962 5962 5963 5964 5965 5966 5967
5913 5914 5916 5918 5919 5921 5922 5924 5925 5927 5929 5931 5933 5935 5936 5938 5939 5940 5942 5943 5945 5946 5947 5948 5949 5950 5951 5952 5952 5953 5954 5956 5957 5958 5959 5960 5961 5961 5962 5963 5964 5965
5907 5909 5912 5914 5916 5917 5918 5920 5922 5923 5926 5928 5930 5932 5933 5935 5937 5938 5940 5941 5943 5944 5946 5947 5948 5949 5950 5950 5950 5951 5952 5954 5955 5956 5957 5958 5959 5960 5960 5961 5962 5963
5901 5903 5906 5909 5911 5912 5914 5916 5917 5919 5922 5924 5926 5928 5930 5932 5934 5936 5938 5939 5941 5943 5945 5946 5947 5948 5949 5950 5949 5950 5951 5952 5953 5954 5955 5956 5957 5958 5959 5960 5961 5962
5899 5899 5901 5903 5905 5906 5909 5911 5913 5915 5918 5920 5922 5924 5926 5929 5932 5933 5935 5937 5938 5940 5942 5943 5944 5946 5948 5949 5948 5949 5949 5950 5952 5953 5954 5955 5955 5956 5957 5958 5959 5959
5897 5898 5899 5900 5901 5903 5905 5907 5909 5911 5913 5915 5917 5919 5922 5925 5927 5929 5931 5933 5935 5937 5938 5940 5941 5942 5945 5946 5946 5946 5947 5949 5950 5952 5953 5953 5954 5954 5955 5956 5956 5957
5894 5895 5896 5897 5898 5901 5903 5904 5906 5907 5908 5910 5912 5914 5917 5919 5922 5924 5926 5929 5931 5933 5935 5937 5938 5939 5940 5942 5942 5943 5943 5946 5948 5950 5951 5952 5952 5953 5953 5953 5954 5954
5890 5892 5892 5894 5896 5898 5901 5903 5904 5906 5906 5907 5908 5910 5912 5915 5917 5919 5921 5924 5926 5928 5931 5933 5934 5936 5937 5938 5938 5938 5939 5941 5944 5946 5947 5949 5950 5951 5951 5951 5951 5952
5888 5889 5888 5889 5892 5895 5898 5901 5903 5905 5905 5905 5905 5906 5907 5910 5912 5914 5916 5919 5922 5924 5926 5928 5930 5931 5933 5934 5935 5935 5935 5937 5938 5940 5942 5944 5946 5947 5948 5948 5949 5949
5885 5885 5885 5886 5888 5890 5893 5896 5898 5900 5900 5901 5902 5903 5904 5905 5907 5910 5912 5914 5917 5919 5921 5923 5925 5926 5928 5930 5931 5931 5932 5933 5934 5936 5937 5939 5941 5942 5944 5945 5945 5945
5880 5880 5881 5883 5885 5886 5889 5890 5892 5893 5894 5895 5897 5900 5901 5901 5902 5904 5907 5909 5912 5914 5916 5919 5920 5921 5923 5925 5926 5926 5927 5929 5931 5933 5934 5935 5936 5937 5938 5940 5941 5942